User: anonymous   Login
Location: Chimay
(50.0486°N, 4.3171°E)
Time: 00:59:53
(UTC+00:00)
Language:

Resurs 01 Rocket - Orbit

View from above orbital plane
View from above orbital plane
View from above satellite
View from above satellite

Ground track
Ground track

The orbit data is extracted from the following two-line orbital elements,

1 23343U 94074B   20292.76433632 +.00000016 +00000-0 +96292-5 0  9998
2 23343 097.9845 344.5795 0008189 110.2012 003.0058 14.76840472396613
Epoch (UTC): 18 October 2020 18:20:38
Eccentricity: 0.0008189
inclination: 97.9845°
perigee height: 633 km
apogee height: 645 km
right ascension of ascending node: 344.5795°
argument of perigee: 110.2012°
revolutions per day: 14.76840472
mean anomaly at epoch: 3.0058°
orbit number at epoch: 39661

The dashed part of the orbit path shows where the satellite is in the earth's shadow,  

DLR